Tracking 19170 objects as of 22-May-2018
HD Live streaming from Space Station
objects crossing your sky now

COSMOS 1596

Track COSMOS 1596 now!
COSMOS 1596 is classified as:


NORAD ID: 15267
Int'l Code: 1984-096A
Perigee: 4,741.2 km
Apogee: 35,658.1 km
Inclination: 68.0 °
Period: 718.4 minutes
Semi major axis: 26570 km
RCS: 8.4284 m2 (large)
Launch date: September 7, 1984
Source: Commonwealth of Independent States (former USSR) (CIS)
Launch site: PLESETSK MISSILE AND SPACE COMPLEX (PKMTR)
aabbcc
Your satellite tracking list
Your tracking list is empty




NASA's NSSDC Master Catalog

Two Line Element Set (TLE):
1 15267U 84096A   18141.61146014 +.00000794 +00000-0 +00000-0 0  9996
2 15267 067.9538 341.1952 5817874 080.8924 286.5050 02.00446919246853
Source of the keplerian elements: AFSPC